Meteopurmerend
purmerend
Purmerend - Baaienwijk



My webcam  My webcam


waarschuwing voor Onweer Meer informatie blitzortung!


Regen radar Meer informatie rain snow radar


Bezoek onze andere website:

CandyAppleRed WebdesignWebdesign Purmerend Candy Apple Red

MeteopurmerendBlog

Template documentation
and downloads



Onweer van: 19-06-2019 10:00 tot: 23:00 waarschuwing voor: Onweer niveau: Geel info button
Enkele onweersbuien, mogelijk met hagel en windstoten tot ca. 75 km/uur.Verkeer en buitenactiviteiten kunnen hinder ondervinden.Mijd open water en open gebied, schuil niet onder bomen.Volg weerberichten en waarschuwingen.

15 daagse weersverwachting Haugesund (NO)

  • Overzicht
  • Per uur
  • 15 dagen
  • Extra
  • Vergelijk
  • Kaarten
  • Dagkaart
  • Meer »
  • Info
  • Statistieken
  • Directe link
    Temp 6h Neerslag Wind  
 04:24     22:59    Daglengte: 18:35 Vandaag
14:00
17°
 
3
20:00
14°
 
2
 04:24     23:00    Daglengte: 18:36 Morgen
02:00
13°
 
2
08:00
12°
4.2 mm
2
14:00
14°
 
4
20:00
13°
 
5
 04:24     23:00    Daglengte: 18:36 Vrijdag 21 Jun
02:00
11°
 
4
08:00
12°
7.3 mm
4
14:00
12°
12.7 mm
6
20:00
12°
9.4 mm
6
 04:24     23:00    Daglengte: 18:36 Zaterdag 22 Jun
02:00
11°
 
6
08:00
11°
15.4 mm
5
Locatie info
Region: Rogaland
Latitude: 59.4120°N
Longitude: 5.2698°E
17 masl
Postcode: 5527
Temp/Neerslag /Baro Onweer/Dauwpunt
    Temp Baro 1h Neerslag Dauwpunt Wind UV Bewolking  
 04:24     22:59    Daglengte: 18:35 Vandaag
14:00
17°
1009.9 hPa   9.3°
3
Windvlaag: 5.2 m/s
91%
15:00
17°
1009.6 hPa   9.5°
3
Windvlaag: 5.3 m/s
90%
16:00
16°
1009.3 hPa
18%
11.2°
3
Windvlaag: 5.5 m/s
90%
17:00
16°
1008.9 hPa
22%
10.3°
3
Windvlaag: 5.7 m/s
88%
18:00
15°
1008.5 hPa
26%
9.6°
3
Windvlaag: 5.7 m/s
69%
19:00
15°
1007.8 hPa
26%
10.0°
2
Windvlaag: 5 m/s
86%
20:00
14°
1007.3 hPa
24%
10.7°
2
Windvlaag: 3.2 m/s
89%
21:00
13°
1007.2 hPa
20%
10.7°
2
Windvlaag: 2.6 m/s
88%
22:00
13°
1006.8 hPa
22%
10.5°
2
Windvlaag: 2.6 m/s
90%
23:00
13°
1006.3 hPa
63%
10.2°
2
Windvlaag: 2.9 m/s
91%
 04:24     23:00    Daglengte: 18:36 Morgen
00:00
13°
1005.7 hPa
75%
10.4°
2
Windvlaag: 3 m/s
85%
01:00
13°
1005.3 hPa
68%
10.0°
2
Windvlaag: 3.1 m/s
89%
02:00
13°
1004.8 hPa
81%
10.2°
2
Windvlaag: 2.8 m/s
87%
03:00
12°
1004.3 hPa 0.5 mm
82%
10.6°
2
Windvlaag: 2.9 m/s
87%
04:00
12°
1003.8 hPa 1.1 mm
82%
10.8°
2
Windvlaag: 2.6 m/s
90%
05:00
12°
1003.4 hPa 1.6 mm
82%
10.9°
2
Windvlaag: 1.7 m/s
91%
06:00
12°
1002.9 hPa 1.1 mm
82%
11.0°
2
Windvlaag: 1.6 m/s
91%
07:00
12°
1002.8 hPa
82%
11.1°
2
Windvlaag: 1.2 m/s
91%
08:00
12°
1003.0 hPa
82%
10.9°
2
Windvlaag: 1.4 m/s
91%
09:00
12°
1003.2 hPa
81%
10.8°
2
Windvlaag: 1.9 m/s
82%
10:00
13°
1003.5 hPa
32%
11.2°
2
Windvlaag: 3.5 m/s
87%
11:00
13°
1003.9 hPa
70%
11.3°
3
Windvlaag: 3.6 m/s
86%
12:00
13°
1004.4 hPa
22%
11.5°
3
Windvlaag: 4.1 m/s
77%
13:00
14°
1004.9 hPa
14%
11.7°
3
Windvlaag: 4.7 m/s
62%
14:00
14°
1005.4 hPa
14%
11.5°
4
Windvlaag: 5.8 m/s
52%
15:00
14°
1005.8 hPa
14%
11.7°
4
Windvlaag: 6.2 m/s
57%
16:00
14°
1006.0 hPa
14%
11.0°
4
Windvlaag: 7.4 m/s
55%
17:00
14°
1006.1 hPa
15%
10.7°
4
Windvlaag: 7.8 m/s
62%
18:00
14°
1006.2 hPa
17%
10.4°
4
Windvlaag: 7.7 m/s
70%
19:00
13°
1006.4 hPa
17%
10.2°
5
Windvlaag: 7.9 m/s
61%
20:00
13°
1006.5 hPa
15%
9.7°
5
Windvlaag: 7.9 m/s
49%
21:00
13°
1006.7 hPa
14%
9.5°
4
Windvlaag: 7.6 m/s
53%
22:00
12°
1007.1 hPa
14%
9.5°
4
Windvlaag: 7.4 m/s
39%
23:00
12°
1007.5 hPa
18%
9.6°
4
Windvlaag: 7 m/s
57%
 04:24     23:00    Daglengte: 18:36 Vrijdag 21 Jun
00:00
12°
1007.9 hPa
31%
9.6°
4
Windvlaag: 6.9 m/s
27%
01:00
12°
1008.0 hPa
35%
9.7°
4
Windvlaag: 6.5 m/s
34%
02:00
11°
1008.1 hPa
35%
9.8°
4
Windvlaag: 6.7 m/s
17%
03:00
11°
1008.2 hPa
36%
10.1°
4
Windvlaag: 6.7 m/s
33%
04:00
11°
1008.2 hPa
82%
10.2°
4
Windvlaag: 6.5 m/s
35%
05:00
12°
1008.3 hPa
82%
10.3°
4
Windvlaag: 6.3 m/s
47%
06:00
12°
1008.3 hPa 1.5 mm
82%
10.3°
4
Windvlaag: 6.3 m/s
59%
07:00
12°
1008.5 hPa 2.5 mm
82%
10.1°
4
Windvlaag: 5.9 m/s
87%
08:00
12°
1008.7 hPa 3.3 mm
82%
10.2°
4
Windvlaag: 6.1 m/s
87%
09:00
12°
1009.0 hPa 2.3 mm
82%
9.6°
4
Windvlaag: 6.9 m/s
85%
10:00
12°
1009.4 hPa 2.2 mm
82%
10.3°
6
Windvlaag: 9.1 m/s
85%
11:00
12°
1009.9 hPa 2.2 mm
100%
9.4°
5
Windvlaag: 8.9 m/s
88%
12:00
12°
1010.3 hPa 1.7 mm
100%
10.1°
5
Windvlaag: 8.2 m/s
94%
13:00
12°
1010.6 hPa 2.4 mm
100%
10.4°
4
Windvlaag: 7.6 m/s
90%
14:00
12°
1011.1 hPa 2.0 mm
100%
9.4°
6
Windvlaag: 8.4 m/s
87%
15:00
12°
1011.8 hPa 1.7 mm
100%
8.7°
6
Windvlaag: 9 m/s
78%
16:00
12°
1012.2 hPa 1.8 mm
100%
8.4°
6
Windvlaag: 9.2 m/s
73%
17:00
12°
1012.6 hPa 1.9 mm
100%
8.1°
6
Windvlaag: 9 m/s
59% warningclass
18:00
12°
1012.9 hPa 2.0 mm
100%
7.4°
6
Windvlaag: 7.7 m/s
58% warningclass
19:00
12°
1013.3 hPa 1.9 mm
100%
7.2°
6
Windvlaag: 7.5 m/s
67%
20:00
12°
1013.8 hPa
100%
6.7°
6
Windvlaag: 7.5 m/s
59%
21:00
11°
1014.6 hPa
100%
7.0°
6
Windvlaag: 7.5 m/s
53%
22:00
11°
1015.2 hPa
100%
7.7°
6
Windvlaag: 7.4 m/s
53%
23:00
11°
1015.8 hPa
100%
8.0°
5
Windvlaag: 7.2 m/s
51%
 04:24     23:00    Daglengte: 18:36 Zaterdag 22 Jun
00:00
11°
1016.4 hPa
100%
7.4°
5
Windvlaag: 7.3 m/s
57%
01:00
11°
1017.0 hPa
100%
8.1°
5
Windvlaag: 7 m/s
46%
02:00
11°
1017.4 hPa
100%
7.8°
6
Windvlaag: 7.6 m/s
31%
03:00
11°
1017.7 hPa 2.9 mm
100%
7.9°
5
Windvlaag: 2.7 m/s
51%
04:00
11°
1018.0 hPa 2.9 mm
100%
8.1°
5
Windvlaag: 2.8 m/s
39%
05:00
11°
1018.4 hPa 2.7 mm
100%
8.1°
5
Windvlaag: 2.4 m/s
23%
06:00
11°
1018.7 hPa 2.9 mm
100%
8.4°
5
Windvlaag: 2.6 m/s
35%
07:00
11°
1019.0 hPa 1.9 mm
100%
8.5°
4
Windvlaag: 2.6 m/s
46%
08:00
11°
1019.4 hPa 2.2 mm
100%
8.7°
5
Windvlaag: 2.2 m/s
44%
09:00
11°
1019.6 hPa 2.8 mm
100%
8.6°
4
Windvlaag: 7.9 m/s
25%
10:00
12°
1020.0 hPa 2.7 mm
100%
8.5°
5
Windvlaag: 7.6 m/s
42%
11:00
12°
1020.3 hPa 2.7 mm
99%
8.5°
5
Windvlaag: 7.8 m/s
44%
12:00
13°
1020.6 hPa
98%
8.4°
5
Windvlaag: 8.3 m/s
41%
13:00
13°
1020.9 hPa
89%
8.2°
5
Windvlaag: 8.5 m/s
39%
Temp/Neerslag /Baro Onweer/Dauwpunt
    Temp Baro Neerslag Dauwpunt Wind Bewolking  
 04:24     22:59    Daglengte: 18:35 Vandaag
14:00
17°
1009.9 hPa   9.3°
3
91%
17:00
16°
1008.9 hPa   10.3°
3
88%
20:00
14°
1007.3 hPa   10.7°
2
89%
23:00
13°
1006.3 hPa   10.2°
2
91%
 04:24     23:00    Daglengte: 18:36 Morgen
02:00
13°
1004.8 hPa   10.2°
2
87%
05:00
12°
1003.4 hPa 3.1 mm 10.9°
2
91%
08:00
12°
1003.0 hPa 1.1 mm 10.9°
2
91%
11:00
13°
1003.9 hPa   11.3°
3
86%
14:00
14°
1005.4 hPa   11.5°
4
52%
17:00
14°
1006.1 hPa   10.7°
4
62%
20:00
13°
1006.5 hPa   9.7°
5
49%
23:00
12°
1007.5 hPa   9.6°
4
57%
 04:24     23:00    Daglengte: 18:36 Vrijdag 21 Jun
02:00
11°
1008.1 hPa   9.8°
4
17%
05:00
12°
1008.3 hPa   10.3°
4
47%
08:00
12°
1008.7 hPa 7.3 mm 10.2°
4
87%
11:00
12°
1009.9 hPa 6.6 mm 9.4°
5
88%
14:00
12°
1011.1 hPa 6.0 mm 9.4°
6
87%
17:00
12°
1012.6 hPa 5.4 mm 8.1°
6
59% warningclass
20:00
12°
1013.8 hPa 4.0 mm 6.7°
6
59%
23:00
11°
1015.8 hPa   8.0°
5
51%
 04:24     23:00    Daglengte: 18:36 Zaterdag 22 Jun
02:00
11°
1017.4 hPa   7.8°
6
31%
05:00
11°
1018.4 hPa 8.4 mm 8.1°
5
23%
08:00
11°
1019.4 hPa 7.0 mm 8.7°
5
44%
11:00
12°
1020.3 hPa 8.2 mm 8.5°
5
44%
14:00
13°
1021.2 hPa   8.0°
5
37%
17:00
13°
1022.2 hPa 19.3 mm 7.6°
4
41%
20:00
12°
1022.3 hPa 19.3 mm 7.5°
4
43%
23:00
11°
1022.9 hPa 19.3 mm 8.4°
3
41%
 04:25     23:00    Daglengte: 18:35 Zondag 23 Jun
02:00
10°
1023.4 hPa 19.3 mm 9.0°
2
38%
05:00
11°
1023.9 hPa 19.3 mm 9.2°
2
54%
08:00
12°
1024.5 hPa 19.3 mm 9.5°
3
69%
11:00
13°
1025.3 hPa 19.3 mm 9.0°
3
78%
14:00
15°
1026.2 hPa 19.3 mm 8.4°
3
87%
17:00
14°
1026.0 hPa 19.3 mm 8.8°
3
77%
20:00
13°
1025.8 hPa 19.3 mm 9.1°
3
66%
23:00
12°
1026.5 hPa 19.3 mm 9.3°
3
75%
 04:25     23:00    Daglengte: 18:35 Maandag 24 Jun
02:00
10°
1027.1 hPa 19.3 mm 9.2°
3
85%
05:00
11°
1027.2 hPa 19.3 mm 9.4°
3
87%
08:00
13°
1027.3 hPa 19.3 mm 9.5°
3
90%
11:00
14°
1027.5 hPa 19.3 mm 9.1°
3
90%
14:00
15°
1027.7 hPa 19.3 mm 8.5°
4
91%
17:00
15°
1027.3 hPa 19.3 mm 9.2°
4
90%
20:00
14°
1026.9 hPa 19.3 mm 9.8°
3
90%
23:00
13°
1027.5 hPa 19.3 mm 10.0°
3
90%
 04:26     23:00    Daglengte: 18:34 Dinsdag 25 Jun
02:00
11°
1028.0 hPa 21.4 mm 10.1°
2
91%
05:00
12°
1027.6 hPa 22.2 mm 11.0°
2
91%
08:00
14°
1027.3 hPa 22.2 mm 11.9°
2
91%
11:00
15°
1027.1 hPa 22.4 mm 11.5°
2
91%
14:00
17°
1026.7 hPa 22.4 mm 10.8°
2
90%
17:00
16°
1026.2 hPa 22.4 mm 11.0°
3
90%
20:00
15°
1025.7 hPa 22.4 mm 11.1°
3
90%
23:00
14°
1026.0 hPa 22.4 mm 11.1°
3
87%
 04:26     23:00    Daglengte: 18:34 Woensdag 26 Jun
02:00
13°
1026.3 hPa 22.4 mm 11.1°
3
84%
05:00
13°
1024.8 hPa 22.4 mm 11.3°
3
79%
08:00
14°
1023.4 hPa 22.4 mm 11.6°
3
74%
11:00
15°
1024.4 hPa   10.9°
4
38%
14:00
16°
1025.3 hPa 44.8 mm 9.8°
5
1%
20:00
13°
1023.1 hPa 44.8 mm 8.9°
5
75%
 04:27     22:59    Daglengte: 18:32 Donderdag 27 Jun
02:00
11°
1023.2 hPa 44.8 mm 9.3°
5
78%
08:00
12°
1021.6 hPa 44.8 mm 9.1°
4
88%
14:00
14°
1020.8 hPa 44.8 mm 8.4°
6
88%
20:00
12°
1019.1 hPa 44.8 mm 8.3°
5
67%
 04:28     22:59    Daglengte: 18:31 Vrijdag 28 Jun
02:00
11°
1018.3 hPa 44.8 mm 8.9°
4
58%
08:00
12°
1016.2 hPa 44.8 mm 8.2°
5
88%
14:00
14°
1016.4 hPa 44.8 mm 7.9°
6
79%
20:00
13°
1014.6 hPa 44.8 mm 8.8°
5
67%
 04:28     22:59    Daglengte: 18:31 Zaterdag 29 Jun
02:00
14°
1011.7 hPa 54.0 mm 13.1°
4
1%
08:00
13°
1012.5 hPa 0.3 mm 10.1°
2
37%
14:00
14°
1012.3 hPa 0.3 mm 9.9°
3
33%
20:00
14°
1011.5 hPa 0.3 mm 9.5°
3
27%
 04:29     22:58    Daglengte: 18:29 Zondag 30 Jun
02:00
12°
1011.3 hPa 0.5 mm 9.3°
2
39%
08:00
13°
1010.4 hPa 0.5 mm 9.5°
1
43%
14:00
15°
1010.4 hPa 0.5 mm 9.7°
2
38%
20:00
14°
1010.2 hPa 0.3 mm 9.8°
3
34%
 04:30     22:57    Daglengte: 18:27 Maandag 01 Jul
02:00
13°
1010.6 hPa 0.5 mm 9.6°
2
38%
08:00
13°
1010.2 hPa 0.4 mm 9.6°
2
39%
14:00
15°
1010.2 hPa 0.2 mm 9.6°
4
39%
20:00
14°
1009.9 hPa 0.2 mm 9.5°
5
39%
 04:31     22:57    Daglengte: 18:26 Dinsdag 02 Jul
02:00
12°
1010.5 hPa 0.2 mm 9.3°
5
41%
08:00
13°
1010.3 hPa 0.3 mm 9.0°
4
38%
14:00
14°
1010.5 hPa 0.2 mm 9.3°
5
35%
20:00
14°
1010.6 hPa 0.2 mm 9.5°
5
38%
 04:33     22:56    Daglengte: 18:23 Woensdag 03 Jul
02:00
12°
1011.5 hPa 0.2 mm 9.1°
4
37%
08:00
13°
1011.5 hPa 0.2 mm 9.0°
4
28%
14:00
14°
1011.9 hPa 0.2 mm 9.0°
4
26%
20:00
13°
1011.9 hPa 0.3 mm 9.2°
4
25%
 04:34     22:55    Daglengte: 18:21 Donderdag 04 Jul
02:00
12°
1012.7 hPa 0.1 mm 9.0°
3
22%
08:00
13°
1012.5 hPa 0.1 mm 8.7°
3
29%
  CAPE Lifted Index Hail Supercell Tornado SRH 3km CL BTM PRES CL TOP PRES Swiss DWD icon SMHI TS
 04:24     22:59    Daglengte: 18:35 Vandaag
14:00 0 J/kg 7.2 K 0 % 0 % 0 % 0 m²/s² 0 0 7.53 3
15:00 1 J/kg 7.4 K 0 % 0 % 0 % 0 m²/s² 0 0 7.79 3
16:00 0 J/kg 7.0 K 0 % 0 % 0 % 0 m²/s² 0 0 7.39 3
17:00 0 J/kg 7.5 K 0 % 0 % 0 % 0 m²/s² 0 0 7.68 61
18:00 0 J/kg 6.9 K 0 % 0 % 0 % 0 m²/s² 0 0 7.11 61
19:00 0 J/kg 5.8 K 0 % 0 % 0 % 0 m²/s² 0 0 6.1 61
20:00 0 J/kg 5.3 K 0 % 0 % 0 % 0 m²/s² 0 0 5.6 3
21:00 0 J/kg 4.8 K 0 % 0 % 0 % 0 m²/s² 0 0 5.22 3
22:00 0 J/kg 4.4 K 0 % 0 % 0 % 0 m²/s² 0 0 4.64 3
23:00 0 J/kg 4.4 K 0 % 0 % 0 % 0 m²/s² 0 0 4.52 61
 04:24     23:00    Daglengte: 18:36 Morgen
00:00 1 J/kg 3.8 K 0 % 0 % 0 % 0 m²/s² 0 0 3.92 61
01:00 0 J/kg 3.3 K 0 % 0 % 0 % 0 m²/s² 0 0 3.6 61
02:00 1 J/kg 3.0 K 0 % 0 % 0 % 0 m²/s² 0 0 3.33 3
03:00 1 J/kg 2.6 K 0 % 0 % 0 % 0 m²/s² 0 0 2.72 61
04:00 0 J/kg 2.5 K 0 % 0 % 0 % 0 m²/s² 0 0 2.62 61
05:00 0 J/kg 3.1 K 0 % 0 % 0 % 0 m²/s² 0 0 3.19 63
06:00 0 J/kg 3.4 K 0 % 0 % 0 % 0 m²/s² 0 0 3.43 61
07:00 1 J/kg 3.0 K 0 % 0 % 0 % 0 m²/s² 0 0 3.12 61
08:00 1 J/kg 2.9 K 0 % 0 % 0 % 0 m²/s² 0 0 2.99 61
09:00 3 J/kg 3.5 K 0 % 0 % 0 % 0 m²/s² 0 0 3.89 3
10:00 4 J/kg 3.7 K 0 % 0 % 0 % 0 m²/s² 0 0 4.48 3
11:00 5 J/kg 4.0 K 0 % 0 % 0 % 0 m²/s² 0 0 5.32 3
12:00 7 J/kg 4.8 K 0 % 0 % 0 % 0 m²/s² 0 0 6.57 2
13:00 7 J/kg 5.4 K 0 % 0 % 0 % 0 m²/s² 0 0 8.67 0
14:00 19 J/kg 5.8 K 0 % 0 % 0 % 0 m²/s² 0 0 10.15 0
15:00 21 J/kg 5.7 K 0 % 0 % 0 % 0 m²/s² 0 0 11.16 3
16:00 11 J/kg 5.8 K 0 % 0 % 0 % 0 m²/s² 0 0 8.65 3
17:00 4 J/kg 5.1 K 0 % 0 % 0 % 0 m²/s² 0 0 6.78 2
18:00 28 J/kg 4.4 K 0 % 0 % 0 % 0 m²/s² 0 0 5.54 2
19:00 82 J/kg 3.6 K 0 % 0 % 0 % 0 m²/s² 0 0 4.95 3
20:00 35 J/kg 4.8 K 0 % 0 % 0 % 0 m²/s² 0 0 8.19 2
21:00 91 J/kg 4.2 K 0 % 0 % 0 % 0 m²/s² 0 0 10.2 3
22:00 73 J/kg 4.4 K 0 % 0 % 0 % 0 m²/s² 0 0 9.74 2
23:00 57 J/kg 4.1 K 0 % 0 % 0 % 0 m²/s² 0 0 8.78 3
 04:24     23:00    Daglengte: 18:36 Vrijdag 21 Jun
00:00 61 J/kg 3.4 K 0 % 0 % 0 % 0 m²/s² 0 0 7.09 2
01:00 108 J/kg 2.3 K 0 % 0 % 0 % 0 m²/s² 0 0 5.12 1
02:00 156 J/kg 0.9 K 0 % 0 % 0 % 0 m²/s² 0 0 3.3 2
03:00 233 J/kg 0.1 K 0 % 0 % 0 % 0 m²/s² 0 0 2.2 3
04:00 267 J/kg 0.0 K 0 % 0 % 0 % 0 m²/s² 0 0 2.31 80
05:00 284 J/kg 0.0 K 0 % 0 % 0 % 0 m²/s² 0 0 1.26 80
06:00 323 J/kg -0.1 K 0 % 0 % 0 % 0 m²/s² 0 0 1.1 80
07:00 378 J/kg -0.4 K 0 % 0 % 0 % 0 m²/s² 0 0 0.5 80
08:00 395 J/kg -0.5 K 0 % 0 % 0 % 0 m²/s² 0 0 0.19 80
09:00 364 J/kg -0.2 K 0 % 0 % 0 % 0 m²/s² 0 0 0.28 80
10:00 152 J/kg 1.4 K 0 % 0 % 0 % 0 m²/s² 0 0 2.09 80
11:00 241 J/kg 0.2 K 0 % 0 % 0 % 0 m²/s² 0 0 0.92 80
12:00 443 J/kg -1.4 K 0 % 0 % 0 % 0 m²/s² 0 0 -1.01 80
13:00 416 J/kg -0.8 K 0 % 0 % 0 % 0 m²/s² 0 0 0.43 80
14:00 354 J/kg -0.1 K 0 % 0 % 0 % 0 m²/s² 0 0 1.37 80
15:00 329 J/kg 0.0 K 0 % 0 % 0 % 0 m²/s² 0 0 1.44 80
16:00 326 J/kg 0.1 K 0 % 0 % 0 % 0 m²/s² 0 0 1.24 80
17:00 321 J/kg 0.2 K 0 % 0 % 0 % 0 m²/s² 0 0 1.46 95
18:00 262 J/kg 0.6 K 0 % 0 % 0 % 0 m²/s² 0 0 1.41 95
19:00 227 J/kg 0.8 K 0 % 0 % 0 % 0 m²/s² 0 0 2.03 80
20:00 247 J/kg 0.6 K 0 % 0 % 0 % 0 m²/s² 0 0 1.74 80
21:00 285 J/kg 0.3 K 0 % 0 % 0 % 0 m²/s² 0 0 1.11 80
22:00 284 J/kg 0.4 K 0 % 0 % 0 % 0 m²/s² 0 0 1.09 80
23:00 233 J/kg 0.6 K 0 % 0 % 0 % 0 m²/s² 0 0 1.83 80
 04:24     23:00    Daglengte: 18:36 Zaterdag 22 Jun
00:00 261 J/kg 0.6 K 0 % 0 % 0 % 0 m²/s² 0 0 1.98 80
01:00 168 J/kg 1.4 K 0 % 0 % 0 % 0 m²/s² 0 0 3.14 80
02:00 144 J/kg 1.5 K 0 % 0 % 0 % 0 m²/s² 0 0 3.66 80
03:00 147 J/kg 1.6 K 0 % 0 % 0 % 0 m²/s² 0 0 3.52 80
04:00 132 J/kg 1.9 K 0 % 0 % 0 % 0 m²/s² 0 0 3.64 2
05:00 130 J/kg 2.1 K 0 % 0 % 0 % 0 m²/s² 0 0 4.08 80
06:00 126 J/kg 2.3 K 0 % 0 % 0 % 0 m²/s² 0 0 4.52 80
07:00 94 J/kg 3.1 K 0 % 0 % 0 % 0 m²/s² 0 0 6.16 2
08:00 89 J/kg 3.2 K 0 % 0 % 0 % 0 m²/s² 0 0 7.07 80
09:00 93 J/kg 3.6 K 0 % 0 % 0 % 0 m²/s² 0 0 7.26 80
10:00 60 J/kg 4.7 K 0 % 0 % 0 % 0 m²/s² 0 0 7.61 2
11:00 58 J/kg 5.0 K 0 % 0 % 0 % 0 m²/s² 0 0 7.67 3
12:00 52 J/kg 5.6 K 0 % 0 % 0 % 0 m²/s² 0 0 7.67 3
13:00 55 J/kg 5.9 K 0 % 0 % 0 % 0 m²/s² 0 0 7.37 3
Temp Baro Wind Neerslag
  EWN Forecast EWN WRFDA DWD ICON FMI HIRLAM MET Norway GFS
 04:24     22:59    Daglengte: 18:35 Vandaag
14:00 17.1° 1009.9 hPa 2.6 m/s 0.0 mm 13.8° 1009.6 hPa 4.7 m/s 0.0 mm 16.3° 1009.8 hPa 2.6 m/s -2.0 mm 17.7° 1009.9 hPa 2.3 m/s 0.0 mm 19.5° 1009.9 hPa 2.1 m/s 0.0 mm 13.9° 1010.0 hPa 3.4 m/s
17:00 15.6° 1008.9 hPa 3.0 m/s 0.0 mm 14.4° 1008.4 hPa 4.8 m/s 0.0 mm 13.6° 1009.1 hPa 2.2 m/s 0.3 mm 16.1° 1009.3 hPa 2.4 m/s 0.0 mm 18.7° 1008.6 hPa 2.9 m/s 0.0 mm 13.6° 1008.7 hPa 3.6 m/s
20:00 13.7° 1007.3 hPa 2.0 m/s 0.0 mm 12.9° 1006.7 hPa 2.2 m/s 0.0 mm 12.7° 1007.2 hPa 0.6 m/s 0.6 mm 14.6° 1008.0 hPa 1.9 m/s 0.0 mm 15.1° 1007.1 hPa 2.2 m/s 0.0 mm 12.4° 1007.4 hPa 2.9 m/s
23:00 12.7° 1006.3 hPa 2.0 m/s 0.0 mm 12.1° 1005.4 hPa 2.5 m/s 0.0 mm 12.3° 1006.4 hPa 1.6 m/s 0.1 mm 12.9° 1007.1 hPa 2.0 m/s 0.0 mm 13.9° 1005.8 hPa 2.0 m/s 0.0 mm 11.7° 1006.7 hPa 1.8 m/s
 04:24     23:00    Daglengte: 18:36 Morgen
02:00 12.7° 1004.8 hPa 2.4 m/s 0.0 mm 11.1° 1003.6 hPa 4.0 m/s 2.0 mm 12.1° 1004.7 hPa 1.8 m/s 0.1 mm 13.7° 1006.2 hPa 2.5 m/s 0.0 mm 13.5° 1004.4 hPa 2.3 m/s 0.0 mm 11.1° 1005.3 hPa 3.1 m/s
05:00 12.2° 1003.4 hPa 2.1 m/s 3.1 mm 10.8° 1001.4 hPa 3.7 m/s 3.0 mm 11.5° 1003.3 hPa 1.9 m/s 5.8 mm 13.6° 1005.0 hPa 2.2 m/s 0.0 mm 12.9° 1003.0 hPa 1.4 m/s 0.5 mm 11.2° 1003.1 hPa 1.5 m/s
08:00 12.1° 1003.0 hPa 2.0 m/s 1.1 mm 11.0° 1000.6 hPa 2.8 m/s 7.9 mm 11.4° 1002.9 hPa 1.9 m/s 2.3 mm 13.9° 1004.1 hPa 2.6 m/s 0.0 mm 12.8° 1002.3 hPa 1.2 m/s 0.3 mm 11.3° 1002.2 hPa 1.2 m/s
11:00 12.8° 1003.9 hPa 2.6 m/s 0.0 mm 11.7° 1001.6 hPa 3.5 m/s 10.5 mm 11.8° 1004.1 hPa 1.9 m/s 0.1 mm 15.5° 1004.3 hPa 2.8 m/s 0.0 mm 12.7° 1002.9 hPa 2.4 m/s 0.5 mm 11.4° 1002.8 hPa 3.1 m/s
14:00 13.9° 1005.4 hPa 3.5 m/s 0.0 mm 12.0° 1003.3 hPa 4.0 m/s 10.9 mm 13.8° 1005.7 hPa 2.8 m/s 0.0 mm 14.2° 1005.5 hPa 3.0 m/s 0.0 mm 14.0° 1005.1 hPa 3.6 m/s 0.0 mm 12.7° 1003.7 hPa 4.3 m/s
17:00 13.6° 1006.1 hPa 4.4 m/s 0.0 mm 12.4° 1003.8 hPa 4.8 m/s 11.4 mm 12.9° 1006.7 hPa 5.1 m/s 0.0 mm 13.3° 1006.2 hPa 1.9 m/s 0.0 mm 14.6° 1006.0 hPa 4.3 m/s 0.0 mm 13.1° 1004.3 hPa 5.9 m/s
20:00 13.1° 1006.5 hPa 4.5 m/s 0.0 mm 11.4° 1004.4 hPa 5.6 m/s 12.0 mm 12.2° 1007.3 hPa 4.9 m/s 0.0 mm 13.9° 1006.5 hPa 1.5 m/s 0.0 mm 13.7° 1006.4 hPa 4.5 m/s 0.0 mm 12.2° 1005.0 hPa 5.8 m/s
23:00 12.1° 1007.5 hPa 4.1 m/s 0.0 mm 11.3° 1005.0 hPa 5.2 m/s 12.4 mm 11.7° 1008.1 hPa 4.3 m/s 0.0 mm 11.9° 1007.3 hPa 2.5 m/s 0.0 mm 12.7° 1007.6 hPa 4.1 m/s 0.0 mm 10.9° 1006.7 hPa 5.1 m/s
 04:24     23:00    Daglengte: 18:36 Vrijdag 21 Jun
02:00 11.4° 1008.1 hPa 4.0 m/s 0.0 mm 11.4° 1005.3 hPa 6.1 m/s 12.6 mm 11.0° 1008.8 hPa 4.2 m/s 0.0 mm 12.1° 1007.8 hPa 3.3 m/s 0.0 mm 11.2° 1008.2 hPa 3.5 m/s 0.0 mm 10.6° 1007.7 hPa 5.0 m/s
05:00 11.6° 1008.3 hPa 3.9 m/s 0.0 mm 10.8° 1006.3 hPa 4.3 m/s 13.3 mm 11.0° 1009.0 hPa 4.8 m/s 1.2 mm 11.3° 1008.1 hPa 2.5 m/s 0.0 mm 12.0° 1008.3 hPa 3.3 m/s 0.0 mm 10.6° 1008.5 hPa 2.7 m/s
08:00 12.0° 1008.7 hPa 4.1 m/s 7.3 mm 11.8° 1006.7 hPa 5.2 m/s 13.6 mm 11.5° 1008.9 hPa 4.7 m/s 5.1 mm 12.1° 1008.8 hPa 3.5 m/s 0.0 mm 12.4° 1009.0 hPa 2.5 m/s 0.0 mm 11.1° 1008.9 hPa 4.1 m/s
11:00 12.0° 1009.9 hPa 4.8 m/s 6.6 mm 11.9° 1008.0 hPa 6.3 m/s 15.8 mm 11.9° 1010.5 hPa 4.4 m/s 6.2 mm 11.8° 1010.2 hPa 3.9 m/s 1.9 mm 11.7° 1009.9 hPa 6.8 m/s
14:00 12.5° 1011.1 hPa 5.7 m/s 6.0 mm 12.2° 1009.3 hPa 8.0 m/s 17.9 mm 12.5° 1011.3 hPa 4.9 m/s 3.3 mm 12.9° 1011.7 hPa 5.4 m/s 0.4 mm 11.4° 1011.4 hPa 6.6 m/s
17:00 12.0° 1012.6 hPa 5.8 m/s 5.4 mm 11.8° 1010.8 hPa 6.9 m/s 18.6 mm 12.0° 1012.8 hPa 4.8 m/s 2.2 mm 12.4° 1013.5 hPa 5.9 m/s 0.0 mm 11.2° 1012.8 hPa 5.8 m/s
20:00 11.5° 1013.8 hPa 5.8 m/s 4.0 mm 11.4° 1011.3 hPa 7.1 m/s 19.3 mm 11.0° 1013.7 hPa 4.3 m/s 3.1 mm 12.4° 1014.7 hPa 5.8 m/s 0.0 mm 11.0° 1013.9 hPa 6.7 m/s
23:00 11.2° 1015.8 hPa 5.5 m/s 0.0 mm 11.3° 1012.3 hPa 6.7 m/s 21.4 mm 10.4° 1015.1 hPa 5.3 m/s 2.3 mm 11.6° 1016.3 hPa 5.3 m/s 0.0 mm 10.3° 1015.8 hPa 6.4 m/s
 04:24     23:00    Daglengte: 18:36 Zaterdag 22 Jun
02:00 11.0° 1017.4 hPa 5.8 m/s 0.0 mm 11.1° 1013.6 hPa 6.6 m/s 22.3 mm 9.9° 1016.3 hPa 5.4 m/s 1.8 mm 11.3° 1018.1 hPa 5.6 m/s 0.0 mm 10.2° 1017.1 hPa 5.5 m/s
05:00 10.9° 1018.4 hPa 5.0 m/s 8.4 mm 11.0° 1015.0 hPa 6.0 m/s 22.6 mm 10.0° 1017.6 hPa 4.4 m/s 0.8 mm 11.2° 1019.0 hPa 4.8 m/s 10.1° 1018.3 hPa 4.7 m/s
08:00 11.1° 1019.4 hPa 4.5 m/s 7.0 mm 11.6° 1016.7 hPa 6.0 m/s 22.9 mm 10.9° 1018.9 hPa 4.5 m/s 1.1 mm 11.1° 1020.0 hPa 3.9 m/s 11.0° 1019.4 hPa 4.2 m/s
11:00 12.3° 1020.3 hPa 4.5 m/s 8.2 mm 12.4° 1018.4 hPa 5.5 m/s 23.2 mm 12.4° 1019.8 hPa 4.6 m/s 0.7 mm 12.1° 1021.0 hPa 4.3 m/s 11.8° 1021.0 hPa 4.2 m/s
14:00 13.2° 1021.2 hPa 4.9 m/s 0.0 mm 13.1° 1019.2 hPa 6.7 m/s 23.2 mm 13.5° 1020.7 hPa 4.7 m/s 0.0 mm 13.2° 1022.1 hPa 4.7 m/s 12.6° 1021.8 hPa 4.6 m/s
17:00 12.6° 1022.2 hPa 4.0 m/s 19.3 mm 12.6° 1022.2 hPa 3.9 m/s 12.8° 1022.0 hPa 4.7 m/s 19.3 mm
20:00 12.3° 1022.3 hPa 3.5 m/s 19.3 mm 12.3° 1022.3 hPa 3.5 m/s 12.7° 1022.0 hPa 4.1 m/s 19.3 mm
23:00 11.3° 1022.9 hPa 3.0 m/s 19.3 mm 11.2° 1022.8 hPa 2.9 m/s 11.5° 1023.3 hPa 3.7 m/s 19.3 mm
 04:25     23:00    Daglengte: 18:35 Zondag 23 Jun
02:00 10.2° 1023.4 hPa 2.4 m/s 19.3 mm 10.2° 1023.4 hPa 2.3 m/s 10.7° 1023.5 hPa 3.1 m/s 19.3 mm
05:00 11.2° 1023.9 hPa 2.4 m/s 19.3 mm 11.2° 1024.0 hPa 2.5 m/s 10.7° 1023.6 hPa 2.2 m/s 19.3 mm
08:00 12.3° 1024.5 hPa 2.6 m/s 19.3 mm 12.3° 1024.5 hPa 2.6 m/s 12.1° 1023.9 hPa 3.1 m/s 19.3 mm
11:00 13.5° 1025.3 hPa 3.0 m/s 19.3 mm 13.5° 1025.4 hPa 2.9 m/s 13.0° 1024.6 hPa 3.9 m/s 19.3 mm
14:00 14.6° 1026.2 hPa 3.2 m/s 19.3 mm 14.7° 1026.3 hPa 3.2 m/s 13.6° 1025.2 hPa 3.5 m/s 19.3 mm
17:00 14.0° 1026.0 hPa 3.0 m/s 19.3 mm 14.1° 1026.1 hPa 3.0 m/s 13.5° 1025.3 hPa 2.7 m/s 19.3 mm
20:00 13.5° 1025.8 hPa 2.8 m/s 19.3 mm 13.5° 1025.9 hPa 2.8 m/s 12.9° 1025.1 hPa 3.4 m/s 19.3 mm
23:00 11.9° 1026.5 hPa 2.7 m/s 19.3 mm 11.9° 1026.5 hPa 2.6 m/s 11.6° 1026.4 hPa 3.4 m/s 19.3 mm
 04:25     23:00    Daglengte: 18:35 Maandag 24 Jun
02:00 10.4° 1027.1 hPa 2.7 m/s 19.3 mm 10.3° 1027.1 hPa 2.5 m/s 11.1° 1027.1 hPa 4.3 m/s 19.3 mm
05:00 11.4° 1027.2 hPa 2.7 m/s 19.3 mm 11.4° 1027.2 hPa 2.5 m/s 10.6° 1027.0 hPa 5.1 m/s 19.3 mm
08:00 12.5° 1027.3 hPa 2.7 m/s 19.3 mm 12.6° 1027.3 hPa 2.5 m/s 11.8° 1026.7 hPa 5.0 m/s 19.3 mm
11:00 14.1° 1027.5 hPa 3.3 m/s 19.3 mm 14.1° 1027.5 hPa 3.0 m/s 13.5° 1026.7 hPa 5.8 m/s 19.3 mm
14:00 15.5° 1027.7 hPa 3.8 m/s 19.3 mm 15.6° 1027.8 hPa 3.6 m/s 14.2° 1026.2 hPa 6.6 m/s 19.3 mm
17:00 14.8° 1027.3 hPa 3.6 m/s 19.3 mm 14.8° 1027.4 hPa 3.4 m/s 14.5° 1025.6 hPa 6.2 m/s 19.3 mm
20:00 14.0° 1026.9 hPa 3.2 m/s 19.3 mm 14.0° 1027.0 hPa 3.2 m/s 14.4° 1025.2 hPa 3.6 m/s 19.3 mm
23:00 12.6° 1027.5 hPa 2.6 m/s 19.3 mm 12.6° 1027.5 hPa 2.6 m/s 13.7° 1026.5 hPa 2.2 m/s 19.3 mm
 04:26     23:00    Daglengte: 18:34 Dinsdag 25 Jun
02:00 11.1° 1028.0 hPa 1.9 m/s 21.4 mm 11.1° 1028.1 hPa 2.0 m/s 11.2° 1027.0 hPa 1.0 m/s 21.4 mm
05:00 12.5° 1027.6 hPa 1.9 m/s 22.2 mm 12.6° 1027.8 hPa 1.8 m/s 11.7° 1026.3 hPa 3.0 m/s 22.2 mm
08:00 13.9° 1027.3 hPa 1.5 m/s 22.2 mm 14.0° 1027.4 hPa 1.5 m/s 13.1° 1026.3 hPa 1.8 m/s 22.2 mm
11:00 15.3° 1027.1 hPa 1.9 m/s 22.4 mm 15.5° 1027.1 hPa 1.9 m/s 13.5° 1027.1 hPa 1.3 m/s 22.4 mm
14:00 16.8° 1026.7 hPa 2.4 m/s 22.4 mm 17.0° 1026.7 hPa 2.4 m/s 14.8° 1027.1 hPa 2.9 m/s 22.4 mm
17:00 16.0° 1026.2 hPa 2.9 m/s 22.4 mm 16.1° 1026.2 hPa 2.8 m/s 15.5° 1027.2 hPa 4.4 m/s 22.4 mm
20:00 15.1° 1025.7 hPa 3.3 m/s 22.4 mm 15.1° 1025.6 hPa 3.1 m/s 15.1° 1026.8 hPa 5.0 m/s 22.4 mm
23:00 13.8° 1026.0 hPa 3.1 m/s 22.4 mm 13.8° 1025.9 hPa 3.1 m/s 13.8° 1027.2 hPa 3.0 m/s 22.4 mm
 04:26     23:00    Daglengte: 18:34 Woensdag 26 Jun
02:00 12.5° 1026.3 hPa 3.0 m/s 22.4 mm 12.5° 1026.2 hPa 3.1 m/s 13.0° 1027.1 hPa 1.4 m/s 22.4 mm
05:00 13.1° 1024.8 hPa 3.2 m/s 22.4 mm 13.1° 1024.7 hPa 3.4 m/s 12.9° 1026.1 hPa 1.5 m/s 22.4 mm
08:00 13.8° 1023.4 hPa 3.4 m/s 22.4 mm 13.7° 1023.2 hPa 3.6 m/s 14.9° 1025.8 hPa 1.2 m/s 22.4 mm
11:00 15.0° 1024.4 hPa 4.2 m/s 22.4 mm 14.9° 1024.2 hPa 4.5 m/s 16.5° 1026.0 hPa 1.3 m/s 22.4 mm
14:00 16.2° 1025.3 hPa 5.2 m/s 22.4 mm 16.1° 1025.3 hPa 5.4 m/s 17.2° 1025.9 hPa 2.9 m/s 22.4 mm
20:00 12.8° 1023.1 hPa 5.4 m/s 22.4 mm 12.4° 1023.0 hPa 5.5 m/s 17.4° 1024.5 hPa 4.3 m/s 22.4 mm
 04:27     22:59    Daglengte: 18:32 Donderdag 27 Jun
02:00 11.3° 1023.2 hPa 4.6 m/s 22.4 mm 11.0° 1023.1 hPa 4.8 m/s 14.9° 1024.3 hPa 2.1 m/s 22.4 mm
08:00 12.3° 1021.6 hPa 4.5 m/s 22.4 mm 11.9° 1021.5 hPa 4.7 m/s 16.3° 1023.3 hPa 2.2 m/s 22.4 mm
14:00 13.8° 1020.8 hPa 5.8 m/s 22.4 mm 13.5° 1020.7 hPa 6.0 m/s 17.6° 1022.1 hPa 4.0 m/s 22.4 mm
20:00 12.5° 1019.1 hPa 5.2 m/s 22.4 mm 12.1° 1019.0 hPa 5.3 m/s 16.8° 1020.5 hPa 4.5 m/s 22.4 mm
 04:28     22:59    Daglengte: 18:31 Vrijdag 28 Jun
02:00 10.8° 1018.3 hPa 4.5 m/s 22.4 mm 10.5° 1018.3 hPa 4.7 m/s 14.7° 1018.6 hPa 1.9 m/s 22.4 mm
08:00 11.9° 1016.2 hPa 5.0 m/s 22.4 mm 11.5° 1016.2 hPa 5.3 m/s 16.8° 1015.8 hPa 1.1 m/s 22.4 mm
14:00 14.4° 1016.4 hPa 5.6 m/s 22.4 mm 13.8° 1016.7 hPa 5.9 m/s 20.6° 1013.1 hPa 1.9 m/s 22.4 mm
20:00 12.8° 1014.6 hPa 5.3 m/s 22.4 mm 12.4° 1015.0 hPa 5.4 m/s 17.5° 1010.6 hPa 4.5 m/s 22.4 mm
 04:28     22:59    Daglengte: 18:31 Zaterdag 29 Jun
02:00 14.2° 1011.7 hPa 4.2 m/s 27.2 mm 14.2° 1011.7 hPa 4.2 m/s 27.2 mm
08:00 13.3° 1012.5 hPa 2.0 m/s 0.3 mm
14:00 14.5° 1012.3 hPa 3.1 m/s 0.3 mm
20:00 13.7° 1011.5 hPa 2.7 m/s 0.3 mm
 04:29     22:58    Daglengte: 18:29 Zondag 30 Jun
02:00 12.5° 1011.3 hPa 1.5 m/s 0.5 mm
08:00 13.2° 1010.4 hPa 0.7 m/s 0.5 mm
14:00 14.7° 1010.4 hPa 2.2 m/s 0.5 mm
20:00 13.9° 1010.2 hPa 3.1 m/s 0.3 mm
 04:30     22:57    Daglengte: 18:27 Maandag 01 Jul
02:00 12.5° 1010.6 hPa 2.1 m/s 0.5 mm
08:00 13.1° 1010.2 hPa 2.0 m/s 0.4 mm
14:00 14.6° 1010.2 hPa 3.8 m/s 0.2 mm
20:00 13.6° 1009.9 hPa 5.1 m/s 0.2 mm
 04:31     22:57    Daglengte: 18:26 Dinsdag 02 Jul
02:00 12.2° 1010.5 hPa 4.5 m/s 0.2 mm
08:00 12.9° 1010.3 hPa 4.0 m/s 0.3 mm
14:00 14.4° 1010.5 hPa 4.7 m/s 0.2 mm
20:00 13.6° 1010.6 hPa 5.3 m/s 0.2 mm
 04:33     22:56    Daglengte: 18:23 Woensdag 03 Jul
02:00 12.3° 1011.5 hPa 4.3 m/s 0.2 mm
08:00 12.7° 1011.5 hPa 4.0 m/s 0.2 mm
14:00 14.1° 1011.9 hPa 4.4 m/s 0.2 mm
20:00 13.3° 1011.9 hPa 4.4 m/s 0.3 mm
 04:34     22:55    Daglengte: 18:21 Donderdag 04 Jul
02:00 11.8° 1012.7 hPa 3.2 m/s 0.1 mm
08:00 12.6° 1012.5 hPa 3.2 m/s 0.1 mm
FMI Hirlam - 7.5 km EWN WRFDA - 12 km DWD ICON - 7 km GFS - 25 km Basiskaart






























































Updatetijd (Europe/Amsterdam) Resolutie Lengte Stap
FMI Hirlam 13:00, 19:00, 01:00, 07:00 7.5 km 49h 1h
EWN WRFDA 10:15, 16:15, 22:15, 04:15 12 km 73h 1h
DWD ICON 11:45, 17:45, 23:45, 05:45 7 km 75h 1h
GFS 08:45, 14:45, 20:45, 02:45 25 km 237h 3h
30+ mm
25-30 mm
20-25 mm
15-20 mm
10-15 mm
6-10 mm
4-6 mm
2-4 mm
1-2 mm
0.5-1 mm
0.2-0.5 mm
0.1-0.2 mm
30+ mm
25-30 mm
20-25 mm
15-20 mm
10-15 mm
6-10 mm
4-6 mm
2-4 mm
1-2 mm
0.5-1 mm
0.2-0.5 mm
0.1-0.2 mm
Sneeuwval
Natte sneeuw
Hagel
Vorst
30+ mm
25-30 mm
20-25 mm
15-20 mm
10-15 mm
6-10 mm
4-6 mm
2-4 mm
1-2 mm
0.5-1 mm
0.2-0.5 mm
0.1-0.2 mm
Sneeuwval
Natte sneeuw
Hagel
Vorst
Onweer
50 mm
40 mm
30 mm
26 mm
22 mm
18 mm
14 mm
10 mm
9 mm
8 mm
7 mm
6 mm
5 mm
4.5 mm
4 mm
3.5 mm
3 mm
2.5 mm
2 mm
1.5 mm
1 mm
0.8 mm
0.6 mm
0.4 mm
0.2 mm
0.05 mm
35°
30°
25°
20°
15°
10°
-5°
-10°
-15°
-20°
-25°
-30°
-35°
33> m/s
29 m/s
25 m/s
21 m/s
17 m/s
14 m/s
11 m/s
8 m/s
5 m/s
3 m/s
0 m/s
2600 J/kg
2400 J/kg
2200 J/kg
2000 J/kg
1800 J/kg
1600 J/kg
1400 J/kg
1200 J/kg
1000 J/kg
800 J/kg
600 J/kg
400 J/kg
200 J/kg
70 dBZ
65 dBZ
60 dBZ
55 dBZ
50 dBZ
45 dBZ
40 dBZ
35 dBZ
30 dBZ
25 dBZ
20 dBZ
15 dBZ
10 dBZ
5 dBZ
-1 K
-2 K
-3 K
-4 K
-5 K
-6 K
-7 K
-8 K
-9 K
950 m²/s²
900 m²/s²
850 m²/s²
800 m²/s²
750 m²/s²
700 m²/s²
650 m²/s²
600 m²/s²
550 m²/s²
500 m²/s²
450 m²/s²
400 m²/s²
350 m²/s²
300 m²/s²
250 m²/s²
200 m²/s²
150 m²/s²
100 m²/s&s